Temp
-10 -11 -10 -10 -10 -10 -11 -10 -10 -10 -10 -10 -11 -11 -11 -11 -10 -10 -10 -10 -10 -10 -10 -10 -10 -10 -10 -10 -10 -9 -9 -9 -9 -9 -9 -9 -9 -9 -9 -9 -9 -9 -9 -9 -9 -9 -9 -9 -9
-10 -10 -11 -11 -10 -11 -11 -11 -11 -10 -10 -10 -10 -11 -11 -11 -11 -11 -11 -10 -10 -10 -10 -10 -10 -10 -10 -10 -10 -9 -9 -9 -9 -9 -9 -9 -9 -9 -9 -9 -9 -9 -9 -9 -9 -9 -9 -9 -9
-10 -10 -11 -11 -11 -11 -12 -12 -11 -11 -11 -10 -10 -11 -11 -11 -12 -11 -11 -11 -11 -10 -11 -10 -11 -10 -10 -10 -10 -10 -9 -9 -9 -9 -9 -9 -9 -9 -9 -9 -9 -9 -9 -10 -10 -9 -9 -9 -9
-10 -10 -10 -10 -11 -12 -12 -12 -12 -11 -11 -11 -11 -11 -11 -11 -12 -12 -12 -11 -11 -11 -11 -10 -11 -10 -10 -10 -10 -10 -10 -10 -9 -9 -9 -9 -9 -9 -9 -9 -9 -9 -9 -10 -10 -9 -9 -9 -9
-10 -10 -11 -11 -12 -12 -13 -12 -12 -12 -12 -12 -12 -11 -12 -12 -12 -12 -12 -12 -12 -12 -11 -11 -11 -11 -11 -11 -11 -10 -10 -10 -10 -9 -10 -9 -9 -9 -9 -9 -9 -9 -9 -10 -10 -10 -10 -9 -9
-10 -10 -11 -11 -12 -13 -13 -13 -13 -13 -12 -12 -12 -12 -11 -12 -12 -12 -12 -12 -12 -12 -12 -11 -11 -11 -11 -11 -11 -11 -10 -10 -10 -10 -10 -10 -10 -10 -9 -9 -9 -10 -10 -10 -10 -10 -10 -10 -10
-10 -11 -11 -13 -13 -14 -14 -13 -13 -13 -13 -13 -12 -12 -12 -12 -13 -13 -12 -12 -12 -12 -12 -11 -11 -11 -11 -11 -11 -11 -11 -10 -10 -10 -10 -10 -10 -10 -9 -9 -9 -9 -10 -10 -10 -10 -10 -10 -10
-11 -12 -13 -14 -14 -15 -15 -14 -13 -13 -14 -13 -13 -12 -12 -12 -12 -13 -12 -13 -12 -12 -12 -12 -12 -12 -11 -11 -11 -12 -11 -11 -11 -10 -10 -10 -10 -10 -10 -10 -10 -10 -10 -10 -10 -10 -10 -10 -10
-12 -13 -14 -15 -16 -15 -16 -15 -14 -14 -14 -13 -13 -14 -13 -13 -13 -13 -13 -13 -13 -13 -12 -12 -12 -12 -12 -12 -12 -12 -11 -11 -11 -11 -10 -10 -10 -10 -10 -10 -10 -10 -10 -10 -10 -10 -10 -10 -10
-14 -15 -16 -16 -17 -16 -16 -16 -15 -15 -14 -14 -14 -15 -14 -13 -13 -13 -13 -13 -13 -13 -13 -12 -12 -12 -12 -12 -12 -12 -11 -11 -12 -11 -11 -11 -11 -10 -10 -10 -10 -10 -10 -10 -10 -10 -10 -10 -10
-16 -16 -16 -16 -17 -17 -17 -16 -15 -16 -15 -15 -14 -14 -15 -14 -14 -13 -13 -13 -13 -13 -13 -12 -12 -12 -12 -12 -12 -12 -11 -12 -12 -12 -11 -11 -11 -11 -11 -10 -10 -10 -10 -10 -10 -10 -10 -10 -10
-16 -16 -16 -16 -17 -18 -18 -17 -16 -16 -16 -15 -15 -15 -16 -15 -15 -14 -13 -13 -13 -13 -13 -13 -13 -12 -12 -12 -12 -12 -12 -12 -12 -12 -12 -11 -11 -11 -11 -11 -10 -10 -10 -10 -10 -10 -10 -10 -10
-16 -16 -16 -16 -17 -18 -18 -18 -17 -16 -17 -16 -15 -16 -16 -15 -15 -14 -14 -14 -13 -13 -13 -13 -13 -13 -12 -12 -12 -12 -12 -12 -12 -12 -13 -11 -11 -11 -11 -11 -11 -11 -11 -11 -11 -11 -10 -10 -10
-16 -16 -16 -17 -18 -18 -18 -18 -18 -17 -16 -16 -15 -15 -15 -15 -14 -14 -14 -13 -13 -13 -13 -13 -14 -13 -13 -12 -12 -12 -12 -12 -12 -12 -12 -12 -12 -11 -12 -11 -11 -11 -11 -11 -11 -11 -11 -11 -11
-16 -17 -17 -17 -18 -18 -18 -18 -18 -17 -17 -17 -16 -15 -15 -15 -14 -14 -14 -14 -14 -14 -14 -13 -14 -13 -13 -13 -13 -12 -12 -12 -12 -12 -12 -12 -12 -12 -12 -12 -12 -12 -11 -11 -11 -11 -11 -11 -11
-16 -17 -17 -17 -18 -18 -18 -18 -18 -18 -17 -17 -16 -16 -15 -15 -15 -14 -14 -15 -14 -14 -14 -14 -13 -14 -13 -14 -13 -13 -13 -12 -12 -12 -12 -12 -12 -12 -12 -12 -12 -12 -12 -12 -12 -12 -12 -12 -12
-16 -17 -17 -18 -18 -17 -18 -18 -18 -18 -18 -17 -17 -16 -16 -16 -15 -15 -15 -15 -15 -14 -14 -14 -13 -13 -13 -13 -14 -14 -13 -13 -13 -13 -13 -12 -12 -12 -12 -12 -12 -12 -12 -12 -12 -12 -12 -12 -12
-16 -17 -17 -18 -18 -18 -18 -18 -18 -18 -18 -18 -17 -17 -16 -16 -16 -15 -15 -15 -15 -14 -14 -14 -14 -13 -13 -13 -13 -13 -14 -13 -13 -13 -13 -13 -13 -13 -13 -13 -13 -13 -13 -13 -12 -12 -12 -12 -12
-17 -17 -17 -18 -18 -18 -18 -18 -18 -19 -18 -18 -17 -17 -17 -16 -16 -16 -15 -16 -16 -15 -14 -14 -14 -13 -13 -13 -13 -13 -13 -13 -13 -13 -13 -13 -13 -13 -13 -13 -13 -13 -13 -13 -13 -13 -13 -13 -13
-17 -17 -17 -18 -18 -18 -18 -18 -18 -18 -18 -18 -18 -17 -17 -16 -16 -16 -16 -15 -16 -15 -14 -14 -14 -15 -14 -13 -14 -13 -13 -13 -14 -14 -13 -13 -14 -14 -13 -13 -13 -13 -13 -13 -13 -13 -13 -13 -13
-17 -17 -18 -18 -19 -19 -19 -19 -19 -18 -18 -18 -18 -18 -17 -17 -16 -16 -16 -16 -16 -16 -15 -14 -14 -14 -14 -15 -14 -13 -13 -13 -13 -13 -13 -14 -13 -14 -14 -13 -13 -13 -13 -13 -13 -13 -13 -13 -14
-17 -17 -18 -18 -19 -19 -20 -20 -19 -19 -18 -18 -18 -18 -18 -17 -17 -16 -16 -16 -16 -16 -15 -15 -15 -15 -14 -14 -14 -14 -14 -13 -13 -13 -13 -13 -14 -14 -13 -14 -14 -14 -14 -14 -14 -14 -14 -13 -14
-17 -17 -17 -18 -19 -19 -20 -20 -20 -19 -19 -18 -18 -18 -18 -17 -17 -17 -16 -16 -16 -16 -16 -16 -15 -16 -15 -14 -14 -14 -14 -14 -14 -14 -13 -13 -13 -13 -13 -14 -14 -14 -14 -15 -14 -14 -14 -14 -14
-17 -17 -17 -18 -18 -19 -19 -19 -19 -19 -19 -18 -18 -18 -18 -17 -17 -17 -16 -16 -16 -16 -15 -15 -15 -15 -15 -15 -15 -14 -14 -14 -14 -14 -14 -14 -14 -14 -14 -14 -14 -14 -14 -14 -14 -14 -14 -14 -14
-17 -17 -18 -18 -18 -18 -19 -19 -19 -19 -19 -19 -19 -18 -18 -18 -17 -17 -16 -16 -16 -15 -15 -15 -15 -15 -15 -15 -15 -15 -15 -15 -14 -14 -14 -14 -14 -14 -15 -14 -14 -14 -13 -13 -14 -14 -14 -14 -14
-17 -18 -18 -18 -18 -18 -18 -18 -19 -19 -19 -19 -19 -18 -18 -18 -18 -17 -17 -16 -16 -15 -15 -15 -15 -15 -15 -15 -14 -15 -15 -15 -15 -15 -15 -15 -14 -15 -14 -14 -14 -14 -14 -14 -14 -14 -14 -14 -13
-17 -19 -19 -18 -18 -18 -18 -18 -18 -18 -18 -19 -19 -18 -18 -18 -17 -17 -17 -16 -16 -16 -16 -15 -15 -15 -15 -15 -15 -15 -15 -15 -16 -15 -15 -15 -15 -15 -15 -15 -15 -14 -15 -14 -14 -14 -14 -14 -14
-17 -19 -19 -19 -18 -18 -18 -18 -18 -18 -18 -18 -18 -18 -18 -18 -17 -17 -16 -16 -16 -16 -16 -15 -15 -15 -15 -15 -15 -15 -15 -15 -15 -16 -16 -15 -16 -15 -15 -15 -15 -15 -15 -15 -15 -15 -15 -15 -15
-17 -19 -20 -19 -18 -18 -18 -18 -18 -18 -18 -18 -18 -18 -17 -17 -16 -16 -16 -16 -16 -16 -16 -16 -16 -15 -15 -15 -15 -15 -15 -15 -15 -16 -16 -16 -16 -16 -16 -16 -16 -15 -15 -15 -16 -15 -15 -15 -15
-18 -19 -20 -19 -19 -19 -18 -18 -18 -18 -18 -18 -18 -18 -17 -17 -16 -16 -15 -16 -16 -16 -15 -16 -16 -15 -15 -15 -15 -15 -15 -15 -15 -15 -16 -16 -16 -16 -17 -17 -17 -17 -16 -16 -15 -15 -15 -16 -15
Height
5828 5828 5829 5829 5829 5829 5829 5829 5828 5828 5829 5831 5831 5833 5833 5835 5836 5838 5836 5837 5838 5840 5840 5842 5845 5845 5845 5849 5852 5854 5856 5858 5860 5861 5862 5863 5866 5867 5869 5870 5870 5870 5870 5870 5870 5870 5871 5870 5871
5826 5825 5825 5823 5825 5825 5826 5825 5824 5824 5825 5826 5827 5829 5830 5831 5833 5834 5835 5834 5836 5838 5839 5840 5842 5844 5845 5847 5850 5852 5854 5857 5859 5860 5861 5862 5864 5866 5868 5869 5870 5870 5870 5869 5870 5869 5870 5870 5870
5820 5821 5820 5818 5819 5821 5821 5819 5817 5819 5820 5822 5823 5824 5826 5828 5829 5830 5832 5833 5834 5835 5837 5838 5840 5842 5844 5846 5848 5851 5853 5855 5857 5859 5860 5861 5863 5864 5866 5868 5869 5870 5870 5869 5869 5869 5869 5869 5869
5815 5814 5813 5813 5814 5813 5813 5810 5809 5811 5814 5817 5819 5820 5821 5824 5825 5827 5828 5830 5831 5833 5835 5836 5838 5839 5843 5845 5847 5849 5852 5854 5856 5858 5858 5860 5861 5863 5865 5866 5868 5869 5869 5868 5868 5869 5869 5869 5869
5809 5808 5806 5807 5805 5805 5804 5804 5802 5804 5806 5809 5812 5816 5816 5818 5821 5823 5824 5826 5829 5831 5832 5833 5835 5837 5840 5843 5845 5847 5850 5853 5854 5856 5858 5860 5861 5862 5864 5865 5866 5867 5868 5868 5868 5868 5868 5869 5869
5801 5799 5797 5796 5794 5796 5794 5796 5797 5798 5802 5803 5806 5810 5812 5813 5816 5819 5821 5822 5824 5827 5830 5832 5833 5834 5837 5839 5842 5845 5848 5850 5853 5855 5856 5859 5860 5862 5863 5864 5865 5866 5867 5866 5867 5867 5867 5868 5868
5795 5791 5786 5784 5784 5784 5785 5788 5790 5791 5795 5798 5801 5803 5807 5809 5811 5813 5817 5818 5820 5823 5826 5829 5831 5832 5834 5837 5839 5842 5845 5847 5850 5852 5854 5856 5859 5861 5862 5863 5864 5864 5865 5866 5866 5866 5866 5866 5867
5787 5780 5776 5775 5775 5775 5777 5779 5782 5784 5786 5791 5795 5798 5802 5804 5807 5808 5810 5813 5816 5819 5822 5825 5828 5829 5830 5831 5835 5838 5842 5845 5847 5849 5852 5854 5856 5857 5860 5861 5862 5863 5864 5865 5865 5865 5865 5865 5866
5777 5771 5765 5763 5765 5766 5769 5771 5773 5777 5779 5783 5788 5793 5795 5798 5801 5803 5806 5808 5811 5814 5818 5822 5824 5826 5828 5829 5830 5834 5838 5841 5844 5846 5849 5851 5853 5855 5856 5858 5859 5860 5861 5863 5863 5864 5864 5864 5865
5769 5763 5758 5756 5755 5756 5759 5763 5765 5769 5771 5776 5781 5785 5789 5792 5795 5797 5801 5804 5807 5809 5813 5816 5820 5822 5824 5826 5828 5831 5834 5837 5840 5842 5845 5848 5850 5852 5853 5856 5857 5858 5859 5860 5861 5861 5862 5862 5863
5761 5757 5754 5751 5749 5748 5750 5753 5757 5760 5765 5770 5776 5781 5784 5788 5790 5793 5797 5800 5803 5806 5808 5811 5814 5817 5821 5823 5825 5827 5829 5831 5835 5838 5841 5843 5846 5849 5850 5852 5855 5856 5856 5857 5858 5859 5859 5860 5860
5757 5752 5748 5745 5742 5741 5742 5744 5749 5753 5759 5765 5771 5775 5775 5780 5783 5787 5792 5794 5797 5801 5803 5806 5810 5813 5816 5819 5821 5823 5826 5828 5831 5834 5837 5840 5842 5844 5846 5849 5851 5852 5854 5854 5855 5856 5857 5858 5858
5751 5747 5743 5738 5735 5735 5736 5737 5741 5745 5750 5758 5763 5765 5766 5770 5775 5780 5783 5789 5792 5795 5798 5801 5804 5808 5811 5814 5817 5820 5822 5824 5827 5830 5833 5836 5838 5840 5841 5844 5846 5848 5850 5851 5851 5852 5853 5853 5854
5745 5741 5737 5733 5730 5729 5730 5733 5736 5739 5743 5750 5756 5759 5761 5764 5768 5772 5776 5779 5783 5788 5791 5793 5798 5801 5805 5809 5812 5815 5818 5820 5822 5824 5827 5829 5832 5835 5837 5839 5841 5843 5844 5846 5847 5847 5848 5849 5849
5740 5733 5730 5728 5726 5726 5727 5729 5731 5734 5736 5744 5747 5752 5756 5759 5762 5765 5768 5773 5778 5782 5783 5786 5791 5795 5797 5802 5806 5810 5812 5816 5818 5820 5822 5824 5826 5829 5832 5833 5835 5837 5839 5840 5841 5842 5843 5844 5844
5737 5730 5727 5726 5723 5722 5723 5725 5727 5729 5731 5736 5741 5744 5751 5752 5756 5760 5762 5765 5771 5775 5778 5782 5785 5789 5791 5794 5798 5802 5806 5809 5811 5814 5817 5820 5821 5823 5825 5827 5829 5831 5833 5834 5835 5836 5836 5837 5837
5735 5730 5726 5724 5721 5720 5720 5720 5722 5725 5726 5729 5734 5738 5742 5746 5750 5754 5758 5760 5764 5768 5772 5776 5776 5781 5785 5788 5791 5795 5799 5801 5804 5807 5811 5814 5816 5818 5819 5821 5823 5824 5826 5827 5829 5829 5830 5831 5831
5734 5729 5726 5722 5720 5717 5716 5716 5718 5720 5723 5725 5729 5734 5737 5740 5743 5748 5751 5754 5756 5760 5764 5768 5770 5775 5777 5781 5784 5787 5790 5794 5798 5800 5804 5807 5809 5812 5813 5815 5817 5818 5819 5820 5821 5823 5824 5824 5825
5733 5729 5723 5720 5717 5715 5714 5714 5714 5715 5718 5721 5724 5729 5732 5735 5737 5741 5745 5748 5750 5754 5757 5760 5764 5766 5768 5774 5777 5780 5783 5786 5790 5793 5795 5798 5800 5803 5805 5807 5810 5811 5812 5813 5815 5816 5816 5817 5817
5732 5727 5723 5719 5716 5714 5711 5710 5711 5712 5713 5716 5720 5723 5727 5729 5732 5736 5738 5741 5744 5747 5750 5753 5755 5756 5761 5766 5771 5773 5776 5779 5782 5785 5787 5790 5792 5795 5795 5799 5803 5805 5805 5806 5808 5809 5809 5809 5809
5731 5726 5722 5717 5713 5710 5708 5706 5706 5708 5710 5712 5714 5717 5721 5723 5726 5729 5733 5735 5738 5740 5743 5745 5750 5752 5755 5756 5760 5765 5766 5771 5774 5776 5778 5781 5784 5786 5787 5789 5793 5797 5798 5799 5800 5801 5802 5802 5803
5729 5725 5720 5714 5710 5707 5704 5703 5702 5704 5706 5708 5710 5712 5715 5717 5720 5722 5724 5728 5730 5733 5735 5739 5741 5746 5749 5753 5754 5756 5758 5761 5764 5766 5769 5770 5774 5777 5775 5779 5783 5787 5790 5792 5792 5794 5794 5795 5794
5728 5723 5718 5713 5708 5705 5701 5700 5700 5701 5703 5704 5706 5708 5710 5712 5714 5716 5719 5721 5723 5726 5729 5732 5735 5737 5741 5744 5747 5748 5751 5755 5756 5758 5761 5764 5767 5767 5769 5772 5775 5777 5782 5784 5784 5785 5786 5786 5785
5724 5720 5716 5712 5707 5704 5701 5699 5699 5700 5701 5702 5703 5704 5706 5707 5708 5710 5712 5715 5717 5719 5721 5724 5727 5730 5732 5735 5739 5742 5744 5747 5749 5751 5754 5757 5760 5762 5763 5763 5766 5770 5772 5772 5772 5774 5776 5776 5776
5722 5717 5714 5712 5707 5704 5701 5700 5699 5699 5699 5700 5700 5700 5702 5703 5704 5705 5706 5708 5710 5712 5714 5717 5719 5722 5724 5725 5728 5731 5734 5738 5740 5743 5746 5749 5752 5754 5756 5758 5761 5762 5763 5763 5765 5767 5769 5768 5769
5720 5714 5711 5709 5707 5704 5701 5700 5699 5698 5698 5697 5697 5697 5697 5698 5699 5700 5701 5702 5704 5705 5707 5710 5712 5713 5715 5718 5719 5721 5723 5726 5730 5733 5736 5739 5743 5745 5747 5751 5752 5753 5754 5754 5758 5760 5761 5760 5761
5718 5712 5710 5709 5707 5705 5702 5700 5698 5697 5696 5695 5695 5695 5694 5694 5694 5694 5695 5696 5698 5699 5700 5702 5703 5706 5707 5709 5710 5712 5714 5716 5718 5721 5724 5727 5730 5734 5736 5739 5741 5743 5745 5747 5750 5748 5751 5751 5752
5719 5711 5710 5708 5707 5705 5703 5700 5698 5697 5695 5694 5693 5693 5692 5690 5689 5689 5689 5690 5690 5691 5693 5694 5695 5696 5698 5700 5702 5703 5705 5706 5708 5710 5712 5715 5719 5722 5725 5727 5729 5732 5735 5738 5740 5742 5742 5742 5742
5721 5714 5711 5709 5707 5706 5704 5702 5699 5697 5695 5693 5692 5690 5689 5687 5686 5686 5686 5686 5687 5686 5686 5686 5687 5688 5689 5690 5692 5694 5695 5696 5698 5700 5702 5704 5707 5710 5714 5716 5718 5722 5724 5727 5729 5732 5733 5733 5732
5724 5718 5714 5711 5709 5706 5703 5703 5699 5697 5695 5692 5690 5689 5687 5685 5684 5682 5681 5681 5681 5681 5681 5681 5682 5682 5682 5684 5684 5685 5685 5686 5688 5690 5691 5694 5697 5699 5702 5704 5707 5711 5714 5716 5718 5720 5722 5724 5724
Wind_Speed
21 25 26 26 26 24 20 22 24 25 22 19 23 21 20 19 16 15 15 14 17 20 21 18 18 22 26 25 24 24 24 22 22 23 21 19 16 12 9 5 2 2 3 6 5 5 4 5 7
17 23 30 29 30 26 17 22 25 27 25 21 20 23 23 19 18 18 15 16 18 19 22 20 19 22 27 27 25 23 24 22 23 24 22 20 18 14 10 6 4 4 4 5 7 5 4 5 6
20 22 28 32 32 26 21 23 29 28 27 25 21 20 26 21 19 18 16 17 19 20 21 21 19 21 28 27 24 22 23 22 24 24 22 21 20 17 12 8 5 5 3 6 7 5 4 5 6
24 23 24 30 30 29 26 28 32 30 25 25 25 19 22 25 21 20 18 17 20 21 20 22 20 22 27 27 23 22 22 22 23 23 21 20 20 18 13 9 7 6 4 7 7 5 4 4 5
26 26 27 26 33 33 29 30 33 34 31 26 25 22 20 26 23 19 19 17 20 22 22 22 19 19 28 27 24 22 22 23 24 24 21 20 19 19 15 11 9 7 4 7 8 7 5 5 5
26 29 32 30 34 36 34 32 34 35 34 29 25 23 20 23 27 23 21 20 20 22 22 21 21 19 27 29 26 23 21 23 24 24 23 20 18 19 17 13 11 9 6 7 8 7 7 6 5
30 35 41 37 37 38 37 35 36 36 32 32 26 22 22 21 26 26 24 23 21 23 25 23 21 23 24 31 28 24 22 23 24 24 24 22 19 18 18 15 12 10 10 7 6 7 6 5 5
33 36 44 42 39 38 36 36 37 38 37 34 32 24 22 22 23 29 28 25 23 23 27 26 23 23 25 25 34 26 24 22 24 25 25 23 21 18 18 17 14 12 11 11 9 8 8 7 6
32 31 37 35 35 39 36 37 38 40 40 36 33 28 24 26 26 27 30 28 26 25 27 30 26 25 25 23 27 28 27 24 22 24 26 25 22 20 19 19 16 14 13 12 11 10 9 8 8
26 23 24 23 25 35 37 36 38 40 40 38 33 29 27 30 27 26 31 33 28 27 27 32 31 28 25 26 27 29 31 29 25 24 25 26 24 21 20 18 19 18 15 14 13 12 10 9 8
23 22 23 26 23 29 34 37 39 39 39 39 34 28 27 28 29 26 27 31 33 30 28 31 35 32 29 27 28 28 31 31 26 25 25 26 26 23 22 20 20 19 18 17 16 14 13 12 11
26 25 26 27 24 27 31 35 40 40 37 38 35 30 31 30 29 27 25 30 31 26 32 30 34 36 32 31 28 27 27 29 27 27 26 28 28 26 24 23 22 21 20 19 18 17 16 16 16
27 26 26 27 23 24 29 34 37 41 40 37 36 36 34 34 31 31 33 31 32 31 29 34 33 37 37 34 33 30 29 30 28 29 28 28 29 29 27 26 25 24 23 22 21 20 20 21 21
31 29 27 25 20 20 27 29 34 41 35 38 39 40 37 37 34 35 34 32 34 37 32 28 37 37 39 38 35 33 30 29 31 32 31 30 29 30 30 30 29 28 27 26 25 25 25 25 25
30 25 22 20 17 17 21 26 30 35 37 36 41 41 40 37 39 37 33 32 32 32 35 31 30 39 39 39 38 36 35 31 30 31 33 32 30 31 32 33 33 31 30 29 29 28 28 29 29
28 22 16 16 16 15 17 21 26 31 33 31 33 46 33 41 41 34 35 34 33 31 31 30 30 40 40 44 41 38 36 35 34 32 31 32 32 31 32 34 34 34 34 33 33 32 32 32 33
26 22 16 14 14 14 13 18 22 29 31 32 30 31 41 41 36 35 35 33 34 33 32 33 31 37 36 41 46 42 39 38 37 35 34 32 33 33 33 34 33 34 35 35 35 35 35 34 34
28 23 18 14 14 13 12 14 19 26 30 31 31 31 32 38 37 31 29 37 38 37 34 36 42 40 40 37 45 48 45 42 39 38 37 36 35 36 36 36 35 33 33 34 34 34 33 34 34
25 22 19 13 12 13 12 11 16 20 26 29 32 32 32 31 33 35 27 35 40 41 39 36 47 38 38 36 47 41 44 48 45 44 43 41 41 40 40 39 37 36 36 36 35 34 35 34 34
23 22 20 16 12 11 12 12 13 17 19 26 29 31 32 34 34 33 36 34 37 42 41 42 40 36 42 42 43 44 44 40 46 45 49 45 47 43 47 42 40 39 39 38 37 37 36 37 37
21 23 24 18 15 14 14 11 12 15 17 18 23 27 30 31 32 32 33 35 32 37 47 43 41 41 37 40 36 42 36 42 42 42 50 48 49 46 49 46 46 44 43 42 41 41 41 41 41
21 22 22 20 14 15 11 10 10 11 16 17 18 22 25 29 30 31 31 34 34 31 36 50 42 42 41 39 43 39 35 39 30 26 35 46 52 55 34 47 46 46 47 45 44 44 45 43 44
21 22 22 21 16 13 9 6 7 10 11 16 16 17 19 25 28 30 30 31 33 32 33 39 45 50 48 41 43 43 43 45 44 37 32 23 25 31 40 54 55 53 51 47 43 46 51 48 45
23 21 20 19 18 12 13 7 4 9 10 12 15 17 17 18 24 28 30 32 32 33 32 32 38 43 51 51 53 48 45 46 45 43 43 43 36 31 34 30 36 42 40 41 43 47 46 48 39
27 21 16 16 16 16 8 6 3 4 7 8 11 14 17 20 21 21 27 29 31 34 35 35 35 36 39 43 52 53 54 52 50 47 46 44 44 42 39 32 32 31 33 31 25 27 30 28 28
32 20 13 12 14 13 12 6 4 2 2 4 6 10 12 16 19 23 26 27 29 32 34 35 36 37 36 40 42 45 51 53 53 52 49 46 45 42 40 38 40 37 34 26 27 33 30 29 27
39 20 7 6 10 12 12 11 8 4 4 7 8 9 11 12 14 17 21 25 28 31 33 34 35 35 35 36 40 44 46 50 55 56 53 50 47 43 44 43 42 42 39 40 35 34 36 34 34
41 27 6 5 8 13 13 12 9 7 4 5 5 7 9 12 12 10 12 16 20 25 29 32 35 36 37 39 39 39 41 45 49 52 53 54 54 49 47 46 47 46 43 40 40 42 39 39 39
40 27 14 7 8 10 12 11 11 9 8 7 6 8 7 7 9 10 12 14 16 19 21 22 24 27 33 39 42 42 44 44 45 47 49 49 51 53 50 47 47 48 48 46 43 42 46 43 45
36 27 17 12 8 11 12 12 10 10 9 9 10 11 11 12 12 13 13 13 14 18 21 24 25 24 24 28 29 33 41 46 48 48 48 48 49 50 49 52 53 45 47 48 48 46 42 42 43
Wind_Direction
276 265 257 259 262 266 269 271 267 267 263 258 249 241 240 245 241 249 233 233 222 206 194 192 192 184 179 183 187 188 188 190 185 177 179 179 181 183 187 199 234 195 210 213 196 199 219 217 207
281 270 265 258 259 263 266 263 262 261 263 260 254 244 243 246 248 252 238 228 228 209 202 194 196 192 185 183 189 190 190 194 188 181 184 185 185 192 200 212 254 225 222 211 197 194 201 206 205
303 277 265 263 260 260 254 252 253 256 260 260 255 249 238 241 244 246 246 236 226 214 205 202 196 194 189 185 188 193 193 193 190 187 186 190 190 197 204 218 242 218 225 197 186 184 192 207 208
297 290 276 271 261 256 245 241 248 249 252 260 259 248 239 234 239 240 242 239 223 216 205 206 200 190 192 190 191 193 194 194 194 194 190 197 196 202 208 217 228 207 207 188 179 175 186 212 205
286 288 285 271 262 254 244 237 242 244 244 244 253 252 229 228 230 231 233 231 231 217 209 206 204 204 195 198 197 195 196 197 198 198 197 202 201 205 212 218 219 201 194 195 189 180 188 202 206
291 289 280 268 253 250 240 236 238 242 245 241 240 242 235 225 224 231 235 227 224 220 213 211 204 208 201 204 201 200 200 200 202 201 202 206 206 212 218 220 217 198 188 203 192 197 199 205 212
297 287 276 259 249 244 239 234 235 237 236 242 238 237 233 232 223 226 232 231 222 219 213 214 210 210 211 205 203 201 203 204 204 205 207 208 209 216 221 221 219 207 197 197 198 189 200 202 216
307 289 273 265 252 245 236 232 232 235 229 237 239 234 230 230 228 223 228 228 224 220 215 214 214 213 223 218 199 203 205 207 208 208 210 212 211 209 222 222 220 214 213 209 220 217 211 216 229
317 294 285 280 260 249 238 232 229 230 228 232 233 235 228 226 225 227 229 231 227 221 217 215 214 216 220 229 197 207 210 208 214 215 214 215 216 217 219 220 219 219 216 216 221 233 233 238 246
319 306 312 302 264 247 240 231 230 229 227 227 227 228 226 225 225 226 226 229 229 221 219 215 215 216 217 220 218 216 214 211 215 218 220 219 220 220 221 227 223 224 224 219 224 231 243 248 258
313 310 312 314 282 247 238 229 230 230 227 225 225 230 220 229 225 224 226 229 230 226 224 218 217 218 218 219 222 221 223 215 219 220 222 223 223 225 226 224 229 226 229 230 228 232 242 255 265
309 308 306 307 288 250 239 229 229 227 226 223 222 223 216 222 226 218 224 228 227 233 219 223 221 219 220 221 222 222 224 226 220 223 225 225 224 224 229 230 231 232 232 235 236 240 249 257 265
309 309 307 306 290 249 241 233 226 230 220 217 218 218 216 215 218 215 215 227 225 228 230 221 223 220 222 223 223 223 221 223 224 226 228 228 228 226 227 231 233 233 236 238 240 244 251 259 266
312 300 300 306 292 254 243 237 228 229 234 208 214 221 220 217 219 221 216 218 221 220 224 232 220 220 221 226 227 227 229 227 226 226 226 231 227 230 231 232 233 236 238 242 245 249 253 258 263
330 310 297 306 294 272 252 244 231 231 236 220 209 223 231 221 223 222 222 221 225 227 234 239 230 220 219 225 228 229 228 230 233 232 229 228 227 228 233 236 237 238 242 245 249 253 257 263 268
350 338 314 304 295 284 259 245 234 230 236 237 230 216 230 234 226 226 222 220 222 224 231 224 238 224 222 220 225 229 229 230 232 236 237 233 230 230 232 237 239 241 243 246 249 253 257 262 266
355 351 335 312 296 293 268 243 237 230 230 236 236 239 219 234 219 225 231 221 220 228 226 220 220 231 232 235 222 225 229 229 231 233 236 236 238 235 234 235 238 242 245 248 251 254 257 262 266
350 347 343 334 303 296 282 249 238 232 229 232 236 235 240 236 235 220 226 226 217 219 222 225 223 223 234 236 230 223 227 230 230 232 233 237 238 238 236 237 238 240 245 248 251 255 259 262 266
355 352 352 346 330 292 287 264 244 237 231 232 234 236 237 243 244 235 240 227 225 225 221 226 219 218 209 229 228 217 231 230 230 232 233 232 237 237 238 237 237 239 243 249 254 256 259 264 269
355 355 351 352 350 326 292 267 247 241 241 233 234 234 234 236 240 244 244 238 234 232 229 227 233 243 233 219 233 230 229 241 232 235 235 234 235 236 242 241 240 241 244 247 250 255 261 265 268
353 356 353 341 333 325 299 291 252 237 234 240 237 233 235 235 238 242 241 244 240 236 234 232 232 238 239 252 232 229 228 239 239 242 238 237 240 242 242 242 244 245 247 249 253 258 262 267 272
342 350 355 357 338 336 308 293 270 239 231 233 236 238 235 234 234 237 239 236 243 245 240 235 238 238 240 236 241 243 243 237 241 255 250 245 239 243 249 239 246 248 250 252 255 261 266 268 272
332 338 353 359 359 359 348 299 244 235 240 236 239 242 238 235 234 233 234 236 237 240 244 241 240 243 242 243 245 248 248 249 261 261 234 243 244 262 257 261 254 248 248 254 258 262 265 268 267
343 331 344 3 8 7 22 30 254 236 239 244 243 244 243 239 233 233 234 235 236 236 238 241 238 245 246 246 248 249 248 251 253 258 259 259 255 258 252 258 261 256 256 260 261 249 257 263 275
350 335 333 358 10 11 11 33 43 265 259 255 253 254 253 247 243 236 232 233 236 236 237 240 239 242 243 245 246 247 251 253 256 255 254 255 261 267 272 271 260 261 259 259 252 259 261 259 273
354 334 324 347 9 8 7 346 311 298 291 265 250 254 256 256 253 246 239 233 235 237 239 239 241 243 244 244 245 248 251 252 253 254 254 255 256 258 257 252 258 257 257 254 270 262 256 261 269
3 349 326 336 14 11 18 12 2 298 287 288 279 274 272 269 265 261 256 248 244 243 242 242 242 243 246 248 248 247 248 248 251 255 256 258 258 253 255 254 255 256 262 265 269 265 268 271 273
9 7 358 357 19 18 21 27 28 15 345 316 304 294 283 278 271 262 249 248 248 250 250 250 250 248 248 247 248 251 252 252 252 252 256 255 254 256 255 254 256 258 259 259 263 267 270 274 275
13 14 21 18 26 23 18 15 23 25 10 354 343 354 346 288 275 269 263 259 256 255 256 256 256 255 254 252 251 250 250 250 251 253 255 255 256 254 253 255 258 257 257 259 259 258 261 266 269
15 16 21 25 24 17 14 3 9 9 8 7 359 354 347 342 333 309 291 269 255 248 251 255 258 256 256 254 255 254 256 255 253 253 255 256 256 258 258 257 253 255 257 258 259 261 260 261 262